Salida, CO

3:42 PM MDT on July 24, 2017 (GMT -0600)
Salida

Weather History for KANK - November, 2012

Change the Weather History Date:

Thursday, November 8, 2012

  Actual Average (KGUC) Record (KGUC)
Temperature  
Mean Temperature 54 °F -  
Max Temperature 62 °F 43 °F 64 °F (2004)
Min Temperature 47 °F 16 °F 5 °F (2000)
Degree Days  
Heating Degree Days 10    
Growing Degree Days 4 (Base 50)    
Moisture  
Dew Point 16 °F    
Average Humidity 22    
Maximum Humidity 31    
Minimum Humidity 15    
Precipitation  
Precipitation 0.00 in - - ()
Sea Level Pressure  
Sea Level Pressure 30.05 in    
Wind  
Wind Speed 13 mph (SSW)    
Max Wind Speed 23 mph    
Max Gust Speed 36 mph    
Visibility 10 miles    
Events      
Averages and records for this station are not official NWS values.
T = Trace of Precipitation, MM = Missing Value Source: NWS Daily Summary

Daily Weather History Graph

Daily Weather History Graph

Search for Another Location

Airport or City:

Trip Planner

Search our weather history database for the weather conditions in past years. The results will help you decide how hot, cold, wet, or windy it might be!

Date:

Astronomy

Nov. 08, 2012 Rise Set
Actual Time 6:38 AM MST 4:56 PM MST
Civil Twilight 6:11 AM MST 5:24 PM MST
Nautical Twilight 5:39 AM MST 5:56 PM MST
Astronomical Twilight 5:08 AM MST 6:27 PM MST
Moon 12:41 AM MST (11/8) 1:35 PM MST (11/8)
Length of Visible Light 11h 13m
Length of Day
10h 17m
Waning Crescent, 32% of the Moon is Illuminated
Nov 8
Waning Crescent
Nov 13
New
Nov 20
First Quarter
Nov 28
Full
Dec 6
Last Quarter

Hourly Weather History & Observations

Time (MST) Temp. Dew Point Humidity Pressure Visibility Wind Dir Wind Speed Gust Speed Precip Events Conditions
9:35 AM 55.2 °F 15.1 °F 21% 30.17 in 10.0 mi SSE 9.2 mph - N/A   Clear
9:55 AM 56.3 °F 14.4 °F 19% 30.16 in 10.0 mi SE 9.2 mph - N/A   Clear
10:15 AM 58.8 °F 14.4 °F 18% 30.15 in 10.0 mi South 16.1 mph 24.2 mph N/A   Clear
10:35 AM 59.4 °F 14.0 °F 17% 30.14 in 10.0 mi South 17.3 mph 26.5 mph N/A   Clear
10:55 AM 60.1 °F 14.0 °F 16% 30.12 in 10.0 mi South 16.1 mph 26.5 mph N/A   Clear
11:15 AM 60.3 °F 13.5 °F 16% 30.11 in 10.0 mi South 12.7 mph 23.0 mph N/A   Clear
11:35 AM 61.0 °F 13.3 °F 15% 30.10 in 10.0 mi South 18.4 mph 28.8 mph N/A   Clear
11:55 AM 61.5 °F 13.1 °F 15% 30.08 in 10.0 mi South 13.8 mph 25.3 mph N/A   Clear
12:15 PM 62.1 °F 13.1 °F 15% 30.07 in 10.0 mi South 17.3 mph 26.5 mph N/A   Clear
12:35 PM 61.2 °F 13.5 °F 16% 30.06 in 10.0 mi South 19.6 mph 27.6 mph N/A   Clear
12:55 PM 60.6 °F 13.5 °F 16% 30.06 in 10.0 mi South 18.4 mph 31.1 mph N/A   Clear
1:15 PM 60.1 °F 14.0 °F 16% 30.05 in 10.0 mi South 18.4 mph 33.4 mph N/A   Clear
1:35 PM 61.3 °F 14.4 °F 16% 30.05 in 10.0 mi SSE 10.4 mph 20.7 mph N/A   Clear
1:55 PM 60.8 °F 14.5 °F 16% 30.04 in 10.0 mi South 21.9 mph 31.1 mph N/A   Clear
2:15 PM 59.2 °F 14.9 °F 18% 30.04 in 10.0 mi South 21.9 mph 31.1 mph N/A   Clear
2:35 PM 60.1 °F 15.8 °F 18% 30.03 in 10.0 mi South 23.0 mph 35.7 mph N/A   Clear
2:55 PM 59.9 °F 16.0 °F 18% 30.03 in 10.0 mi South 23.0 mph 34.5 mph N/A   Clear
3:15 PM 59.4 °F 16.7 °F 19% 30.03 in 10.0 mi South 19.6 mph 34.5 mph N/A   Clear
3:35 PM 58.6 °F 17.8 °F 20% 30.03 in 10.0 mi South 17.3 mph 29.9 mph N/A   Clear
3:55 PM 58.1 °F 18.5 °F 21% 30.04 in 10.0 mi South 17.3 mph 25.3 mph N/A   Clear
4:15 PM 57.2 °F 19.8 °F 23% 30.04 in 10.0 mi South 16.1 mph 24.2 mph N/A   Clear
4:35 PM 56.5 °F 20.3 °F 24% 30.03 in 10.0 mi South 13.8 mph 23.0 mph N/A   Clear
4:55 PM 56.3 °F 20.3 °F 25% 30.02 in 10.0 mi South 17.3 mph 26.5 mph N/A   Clear
5:15 PM 56.3 °F 20.3 °F 25% 30.02 in 10.0 mi South 13.8 mph 25.3 mph N/A   Clear
5:55 PM 55.9 °F 20.8 °F 26% 30.04 in 10.0 mi South 8.1 mph 19.6 mph N/A   Clear
6:15 PM 55.9 °F 20.3 °F 25% 30.04 in 10.0 mi SSW 9.2 mph 16.1 mph N/A   Clear
6:35 PM 55.4 °F 19.4 °F 25% 30.03 in 10.0 mi South 4.6 mph - N/A   Clear
6:55 PM 51.4 °F 19.8 °F 29% 30.04 in 10.0 mi North 5.8 mph - N/A   Clear
7:15 PM 50.2 °F 20.1 °F 31% 30.03 in 10.0 mi NW 9.2 mph - N/A   Clear
7:35 PM 50.4 °F 18.9 °F 29% 30.03 in 10.0 mi NW 9.2 mph - N/A   Clear
7:55 PM 49.3 °F 18.3 °F 29% 30.03 in 10.0 mi WNW 8.1 mph - N/A   Clear
8:15 PM 48.9 °F 17.6 °F 29% 30.02 in 10.0 mi West 8.1 mph - N/A   Clear
8:35 PM 48.2 °F 16.9 °F 29% 30.02 in 10.0 mi West 3.5 mph - N/A   Clear
8:55 PM 47.3 °F 16.3 °F 29% 30.02 in 10.0 mi SSW 4.6 mph - N/A   Clear
9:15 PM 50.0 °F 15.6 °F 25% 30.02 in 10.0 mi Calm Calm - N/A   Clear
9:55 PM 48.6 °F 14.7 °F 26% 30.02 in 10.0 mi WSW 3.5 mph - N/A   Clear
10:15 PM 48.4 °F 13.3 °F 24% 30.02 in 10.0 mi Calm Calm - N/A   Clear
10:55 PM 50.9 °F 12.7 °F 22% 30.02 in 10.0 mi SSW 11.5 mph 19.6 mph N/A   Clear
11:15 PM 50.9 °F 13.5 °F 22% 30.01 in 10.0 mi SW 12.7 mph 23.0 mph N/A   Clear
11:35 PM 51.8 °F 13.3 °F 22% 30.01 in 10.0 mi SW 16.1 mph 20.7 mph N/A   Clear
11:55 PM 50.5 °F 13.6 °F 23% 30.00 in 10.0 mi SW 16.1 mph 24.2 mph N/A   Clear